www.pogodaiklimat.ru

Погода и климат >> Архив погоды >> Австралия >> Dalwallinu


ПОГОДА в Dalwallinu

  • Прогноз погоды в Dalwallinu
  • Монитор погоды в Dalwallinu
  • Климат города

АРХИВ ПОГОДЫ в Dalwallinu

Время (UTC), дата Ветер
(напр.,м/с)
 
Видим.   Явления Облачность Т
(С)
Тd
(С)
f
(%)
Тe
(С)
Тes
(С)
Комфортность P
(гПа)
Po
(гПа)
Тmin
(С)
Tmax
(С)
R
(мм)
R24
(мм)
S
(см)
10 18.05 ЮВ 4 н/о н/о +15.0 +0.8 38 +14 +14 1026.4 988.0
13 18.05 ЮВ 5 н/о н/о +13.4 +3.5 51 +12 +12 1027.3 988.8 +22.2
16 18.05 В 3 н/о н/о +10.9 +3.2 59 +10 +10 1027.0 988.5
19 18.05 СВ 5 н/о н/о +11.1 +3.4 59 +9 +9 1026.8 988.4
22 18.05 СВ 2 н/о н/о +7.9 +2.8 70 +6 +6 1027.3 988.8
01 19.05 СВ 8 н/о н/о +14.8 +4.5 50 +13 +13 1028.4 989.9 +6.7
04 19.05 СВ 6 н/о н/о +20.3 +1.2 28 +20 +20 1026.3 987.9
07 19.05 В 3 н/о н/о +22.8 -0.6 21 +22 +22 комфорт 1024.9 986.5
10 19.05 В 3 н/о н/о +15.1 -3.3 28 +15 +15 1025.4 987.0
13 19.05 ЮВ 5 н/о н/о +11.6 -0.9 42 +10 +10 1026.6 988.2 +23.3
16 19.05 В 5 н/о н/о +11.3 +1.0 49 +9 +9 1026.5 988.1
19 19.05 В 3 н/о н/о +6.8 -0.6 59 +4 +4 1026.8 988.4
22 19.05 СВ 3 н/о н/о +6.2 -0.5 62 +3 +3 1027.3 988.8
01 20.05 СВ 7 н/о н/о +14.6 +2.2 43 +13 +13 1028.5 990.0 +6.2
04 20.05 СВ 5 н/о н/о +21.4 +1.6 27 +21 +21 комфорт 1027.3 988.8
07 20.05 В 5 н/о н/о +22.9 -1.2 20 +22 +22 комфорт 1025.5 987.1
10 20.05 ЮВ 5 н/о н/о +14.7 -2.2 31 +14 +14 1025.9 987.5
13 20.05 ЮВ 5 н/о н/о +12.8 -0.1 41 +11 +11 1027.0 988.5 +23.4
16 20.05 СВ 3 н/о н/о +11.1 +1.4 51 +10 +10 1026.5 988.1
19 20.05 ЮВ 2 н/о н/о +7.5 +1.4 65 +6 +6 1026.7 988.3
22 20.05 В 3 н/о н/о +6.8 +2.5 74 +4 +4 1027.4 988.9
01 21.05 СВ 9 н/о н/о +16.0 +6.4 53 +14 +14 1028.3 989.8 +6.1
04 21.05 С 6 н/о н/о +21.7 +4.7 33 +22 +22 комфорт 1026.3 987.9
07 21.05 СВ 3 н/о н/о +23.7 +1.4 23 +23 +23 комфорт 1024.0 985.7
10 21.05 В 4 н/о н/о +16.3 -0.8 31 +16 +16 1024.6 986.2
13 21.05 ЮВ 2 н/о н/о +12.8 +1.2 45 +12 +12 1025.1 986.7 +24.0
16 21.05 В 1 н/о н/о +10.7 +1.5 53 +11 +11 1025.2 986.8
19 21.05 СВ 4 н/о н/о +9.4 +1.1 56 +7 +7 1024.7 986.3
22 21.05 СВ 3 н/о н/о +8.5 +1.9 63 +7 +7 1024.9 986.5
01 22.05 СВ 7 н/о н/о +16.0 +3.4 43 +15 +15 1025.7 987.3 +6.8
04 22.05 СВ 6 н/о н/о +23.3 +2.2 25 +23 +23 комфорт 1023.4 985.1
07 22.05 С 3 н/о н/о +25.0 -0.9 18 +23 +23 комфорт 1020.7 982.5
10 22.05 В 3 н/о н/о +16.6 -2.0 28 +16 +16 1021.3 983.1
13 22.05 штиль 0 н/о н/о +15.1 -1.5 32 +15 +15 1022.3 984.0 +25.9
16 22.05 штиль 0 н/о н/о +12.4 -1.1 39 +12 +12 1022.2 983.9
19 22.05 СВ 2 н/о н/о +10.0 -0.8 47 +9 +9 1021.2 983.0
22 22.05 В 2 н/о н/о +8.3 -0.7 53 +7 +7 1020.9 982.7
01 23.05 СВ 5 н/о н/о +16.1 -0.2 33 +15 +15 1021.4 983.2 +7.7
04 23.05 С 7 н/о н/о +24.6 +0.2 20 +23 +23 комфорт 1019.2 981.0
07 23.05 С 5 н/о н/о +26.0 -0.9 17 +24 +24 комфорт 1016.7 978.6
10 23.05 СВ 3 н/о н/о +19.3 -1.2 25 +20 +20 1016.5 978.4
13 23.05 СВ 2 н/о н/о +15.5 -1.1 32 +16 +16 1016.8 978.7 +27.2
16 23.05 СВ 2 н/о н/о +12.4 -1.5 38 +12 +12 1015.7 977.7
19 23.05 СВ 3 н/о н/о +9.6 -1.4 46 +8 +8 1014.5 976.5
22 23.05 С 5 н/о н/о +12.8 -0.4 40 +11 +11 1014.4 976.4
01 24.05 С 8 н/о н/о +19.4 -0.6 26 +19 +19 1013.8 975.8 +9.6
04 24.05 С 12 н/о н/о +25.7 -0.4 18 +24 +24 комфорт 1010.2 972.4
07 24.05 С 12 н/о н/о +27.2 +1.6 19 +25 +25 комфорт 1006.4 968.7
10 24.05 С 9 н/о н/о +24.7 +2.8 24 +24 +24 комфорт 1004.3 966.7
13 24.05 С 11 н/о н/о +24.1 +3.4 26 +23 +23 комфорт 1002.3 964.8 +28.3
16 24.05 С 10 н/о {туман} н/о +16.8 +15.7 93 +15 +15 1002.2 964.7
19 24.05 СЗ 7 н/о {туман} н/о +15.3 +12.8 85 +13 +13 1003.0 965.4
22 24.05 СЗ 7 н/о {туман} н/о +13.7 +11.6 87 +11 +11 1003.6 966.0
01 25.05 СЗ 9 н/о {туман} н/о +13.9 +11.8 87 +11 +11 1004.7 967.1 +13.1
04 25.05 СЗ 9 н/о {туман} н/о +16.3 +10.8 70 +15 +15 1004.3 966.7
07 25.05 З 9 н/о {осадки} н/о +14.1 +9.5 74 +12 +12 1004.3 966.7 10
10 25.05 СЗ 7 н/о н/о +13.2 +10.9 86 +11 +11 1005.6 967.9

 

Местоположение метеостанции Dalwallinu (Западная Австралия, Австралия): широта -30.28 долгота 116.67 высота над уровнем моря 326 м.

В архиве по умолчанию представлена погода в Dalwallinu за последнюю неделю. Архивные данные за месяц целиком и за предыдущие месяцы, начиная с января 2011 года, Вы можете получить, выбрав интересующий диапазон дат из раскрывающегося списка и нажав кнопку "Ввод!".


*Определитесь, кто Вы:
робот инопланетянин человек

Внимание! Время в таблицах - всемирное. Для получения местного времени необходимо прибавить поправку, которая в Dalwallinu равна 8 ч.

Смотрите также архив погоды в соседних городах и на ближайших метеорологических станциях:

Погода в Rottnest Island Lighthouse (Западная Австралия, Австралия) (110 км)
Погода в Morawa Airport (Западная Австралия, Австралия) (136 км)
Погода в Gingin Aero (Западная Австралия, Австралия) (153 км)
Погода в Cunderdin Airfield (Западная Австралия, Австралия) (158 км)
Погода в Bullsbrook Pearce Amo (Западная Австралия, Австралия) (167 км)
Погода в Wanneroo (Западная Австралия, Австралия) (187 км)
Погода в Goosebery Hill (Западная Австралия, Австралия) (195 км)
Погода в Perth (Западная Австралия, Австралия) (196 км)
Погода в Mount Lawley Perth Metro (Западная Австралия, Австралия) (198 км)
Погода в Kalamunda Bickley (Западная Австралия, Австралия) (200 км)

Пояснения к столбцам:

Ветер - указаны скорость ветра в м/с - средняя за 10 мин, порывы в срок и между сроками (в фигурных скобках) и направление, откуда дует ветер: С - северный, СВ - северо-восточный, В - восточный, ЮВ - юго-восточный, Ю - южный, ЮЗ - юго-западный, З - западный, СЗ - северо-западный.
Видимость - горизонтальная дальность видимости в метрах или километрах. При видимости от 1 до 10 км при отсутствии осадков обычно наблюдается дымка, при ухудшении видимости до 1 км и менее - туман. В сухую погоду видимость может ухудшаться дымом, пылью или мглою.
Явления - указаны атмосферные явления, наблюдавшиеся в срок или в последний час перед сроком; фигурными скобками обозначены явления, наблюдавшиеся между сроками (за 1-3 часа до срока); квадратными скобками обозначены град или гололедные отложения с указанием их диаметра в мм.
Облачность - указаны через наклонную черту общая и нижняя облачность в баллах и высота нижней границы облаков в метрах; квадратными скобками обозначены формы облаков: Ci - перистые, Cs - перисто-слоистые, Cc - перисто-кучевые, Ac - высококучевые, As - высокослоистые, Sc - слоисто-кучевые, Ns - слоисто-дождевые, Cu - кучевые, Cb - кучево-дождевые. Подробнее классификацию облаков см. в Атласе облаков (PDF).
T - Температура воздуха - температура, измеренная на высоте 2 м над землей.
Td - Температура точки росы - температура, при понижении до которой содержащийся в воздухе водяной пар достигнет насыщения.
f - Относительная влажность воздуха - влажноcть воздуха, измеренная на высоте 2 м над землей.
Te - Эффективная температура - температура, которую ощущает одетый по сезону человек в тени. Характеристика душности погоды. При расчете учитывается влияние влажности воздуха и скорости ветра на теплоощущения человека.
Tes - Эффективная температура на солнце - температура, которую ощущает человек, с поправкой на солнечный нагрев. Характеристика знойности погоды. Зависит от высоты солнца над горизонтом, облачности и скорости ветра. Ночью, в пасмурную погоду, а также при ветре 12 м/с и более поправка равна нулю.
P - Атмосферное давление - приведенное к уровню моря атмосферное давление.
Po - Атмосферное давление - измеренное на уровне метеостанции атмосферное давление.
Tmin - Минимальная температура - минимум температуры воздуха на высоте 2 м над землей.
Tmax - Максимальная температура - максимум температуры воздуха на высоте 2 м над землей.
R - Количество осадков - Количество выпавших осадков за период времени, мм. При наведении курсора мыши на число - период времени, за который выпало указанное количество осадков.
R24 - Количество осадков - Количество выпавших осадков за 24 часа, мм.
S - Снежный покров - Высота снежного покрова, см. При наведении курсора мыши на число - состояние снежного покрова и степень покрытия местности в баллах.